Location: B�rgermoos
(47.6500°N, 9.0667°E)
Time: 06:05:22
(UTC+00:00)

Ariane Rocket - Pass Details

Date: 18 September 2020
Orbit: 760 x 769 km, 98.7° (Epoch: 27 October)

Event Time Altitude Azimuth Distance (km) Brightness Sun altitude
Exits shadow 18:09:45 - 135° (SE) 2,856 5.5 -7.6°
Reaches altitude 10° 18:11:15 10° 129° (SE) 2,296 4.9 -7.9°
Maximum altitude 18:15:48 35° 65° (ENE) 1,227 3.7 -8.6°
Drops below altitude 10° 18:20:23 10° 1° (N) 2,316 5.6 -9.4°
Sets 18:22:51 0° 353° (N) 3,248 6.5 -9.8°
